Location: Observatorio del Centro Ecologico de Sonora
(29.0667°N, 110.9333°W)
Time: 20:10:03
(UTC-07:00)

ISS - Visible Passes

Search period start: 29 August 2016 00:00
Search period end: 08 September 2016 00:00
Orbit: 402 x 406 km, 51.6° (Epoch: 29 August)

Date Brightness Start Highest point End Pass type
(mag) Time Alt. Az. Time Alt. Az. Time Alt. Az.
01 Sep -1.0 05:03:27 10° S 05:06:02 22° SE 05:08:38 10° ENE visible
03 Sep -3.2 04:55:47 26° SSW 04:57:26 73° SE 05:00:42 10° NE visible
04 Sep -1.2 04:05:58 25° E 04:05:58 25° E 04:07:57 10° ENE visible
05 Sep -2.5 04:48:42 33° NW 04:48:58 34° NW 04:52:00 10° NNE visible
06 Sep -0.7 03:58:39 20° NE 03:58:39 20° NE 03:59:46 10° NE visible
07 Sep -1.0 04:41:11 14° NNW 04:41:11 14° NNW 04:42:33 10° N visible
